Weather Roundup
Issued by NWS

Home | Current Version | Previous Version | Text Only | Print | Product List | Glossary On
Versions: 1 2 3 4 5 6 7 8 9 10 11 12 13 14 15 16 17 18 19 20 21 22 23 24 25 26 27 28 29 30 31 32 33 34 35 36 37 38 39 40 41 42 43 44 45 46 47 48 49 50
000
NZUS93 KARX 120759
HRRWXR

CURRENT HOURLY OBSERVATIONS ACROSS
MUCH OF THE UPPER MISSISSIPPI VALLEY
NATIONAL WEATHER SERVICE LA CROSSE WI
300 AM CDT WED AUG 12 2020


...SOUTHEAST MINNESOTA...


CITY           SKY/WX    TMP DP  RH WIND       PRES   REMARKS
ROCHESTER      CLEAR     55  53  93 S6        30.08R
ROCHESTER/MAYO FAIR      63  55  74 SE3       30.07R
WINONA         PTCLDY    59  59 100 CALM      30.06R
AUSTIN           N/A     57  55  94 CALM      30.07R
ALBERT LEA     CLEAR     57  57 100 CALM      30.05S
DODGE CENTER   CLEAR     55  52  88 S6        30.06S
PRESTON        CLEAR     59  54  82 CALM      30.08R
OWATONNA       CLEAR     63  55  77 SE7       30.04S
FARIBAULT      CLEAR     63  57  82 CALM      30.04S
$$

...ELSEWHERE IN MINNESOTA...


CITY           SKY/WX    TMP DP  RH WIND       PRES   REMARKS
MINNEAPOLIS    CLEAR     66  59  78 SE3       30.02F
INTNL FALLS    CLEAR     49  47  93 CALM      29.98S
DULUTH         MOCLDY    66  59  78 W8        30.03R
RED WING       CLEAR     61  57  88 CALM      30.04R
REDWOOD FALLS  PTCLDY    62  58  86 SE7       29.97F
MANKATO        CLEAR     62  60  93 SE9       30.02F
WORTHINGTON    PTCLDY    67  62  84 S10       29.98F
FAIRMONT       CLEAR     61  59  93 S7        30.02F
$$

...SOUTHWEST WISCONSIN...


CITY           SKY/WX    TMP DP  RH WIND       PRES   REMARKS
LA CROSSE      PTCLDY    61  58  90 SE6       30.05F
PRAIRIE DU CHI CLEAR     58  56  92 SE3       30.07R
BOSCOBEL       FOG       55  53  93 CALM      30.08R VSB 3/4
LONE ROCK      FOG       57  56  96 CALM      30.08R VSB 1/4
PLATTEVILLE    NOT AVBL
FORT MC COY    PTCLDY    48  48  98 CALM      30.08S
CAMP DOUGLAS   PTCLDY    52  52 100 CALM      30.06S FOG
MAUSTON-NEW LI MOSUNNY   55  54  99 CALM      30.07R
VIROQUA        FAIR      57  57  99 CALM      30.08S
WIS DELLS      CLEAR     56  55  95 CALM      30.08R
$$

...ELSEWHERE IN WISCONSIN...


CITY           SKY/WX    TMP DP  RH WIND       PRES   REMARKS
MILWAUKEE      PTCLDY    64  56  75 CALM      30.06R
MADISON        CLEAR     58  57  97 CALM      30.07R
GREEN BAY      CLEAR     57  54  89 CALM      30.05R
EAU CLAIRE     NOT AVBL
BLACK RVR FLS  FAIR      54  54  98 CALM      30.06S
MEDFORD        PTCLDY    55  54  97 CALM      30.08R
WAUSAU         CLEAR     61  57  87 CALM      30.06R
WIS RAPIDS     PTCLDY    60  57  89 CALM      30.07S
MARSHFIELD     MOCLDY    63  54  72 SW5       30.07R
RICE LAKE      PTCLDY    60  59  98 CALM      30.07S
$$

...NORTHEAST IOWA...


CITY           SKY/WX    TMP DP  RH WIND       PRES   REMARKS
WATERLOO       NOT AVBL
DUBUQUE        CLEAR     60  57  89 CALM      30.08R
DECORAH        CLEAR     59  59 100 CALM      30.07R
MASON CITY     CLEAR     58  56  93 S3        30.06S
CHARLES CITY   CLEAR     59  57  94 E3        30.07R
OELWEIN        CLEAR     59  57  94 E6        30.07S
$$

...ELSEWHERE IN IOWA...


CITY           SKY/WX    TMP DP  RH WIND       PRES   REMARKS
DES MOINES     CLOUDY    70  64  81 E6        30.02S
IOWA CITY      NOT AVBL
FORT DODGE     CLEAR     62  61  96 E5        30.04S
MARSHALLTOWN   NOT AVBL
CEDAR RAPIDS   NOT AVBL
$$

...NORTHERN ILLINOIS...


CITY           SKY/WX    TMP DP  RH WIND       PRES   REMARKS
CHICAGO-OHARE  MOCLDY    66  58  75 CALM      30.07R
CHICAGO-MIDWAY MOCLDY    67  60  78 CALM      30.07R
MOLINE         CLEAR     59  57  93 S5        30.05S
ROCKFORD       CLEAR     61  57  87 CALM      30.11S
PEORIA         PTCLDY    65  61  87 NE3       30.05S
$$

NOTE: "FAIR" INDICATES FEW OR NO CLOUDS BELOW 12,000 FEET WITH NO
SIGNIFICANT WEATHER AND/OR OBSTRUCTIONS TO VISIBILITY. WIND
SPEEDS ARE IN MILES-PER-HOUR.




USA.gov is the U.S. government's official web portal to all federal, state and local government web resources and services.